Powrót do katalogu

STARLINK-36669

AktywnyŁącznośćSSO
NORAD 68675·PAYLOAD·🇺🇸 United States

Wystrzelony Apr 11, 2026 z Vandenberg Space Force Base

Loading…

Następne Przeloty (najbliższe 24 godziny)

TLE

ŚwieżeSource: CelesTrak SupGP

Epoka: Sep 14, 2026, 21:31 UTC

1 68675C 26077P   26257.89701389  .00012012  00000+0  37302-3 0  2571
2 68675  97.2847 127.8774 0001970  94.3660 304.0060 15.33418954    19

Śledź STARLINK-36669 w czasie rzeczywistym z AllMySat

Download on the App Store